Meteo pe oră la Dabrowka

Astăzi, 15 Aprilie, Joi

Timp Temperatura Precipitaţii Vânt Presiune Umiditate
00:00 +2°C° 0 mm 3 m/s 764 mmHg 72%
01:00 +1°C° 0 mm 3 m/s 764 mmHg 75%
02:00 +1°C° 0 mm 3 m/s 763 mmHg 76%
03:00 +1°C° 0 mm 3 m/s 763 mmHg 77%
04:00 +1°C° 0 mm 3 m/s 763 mmHg 78%
05:00 +1°C° 0 mm 3 m/s 763 mmHg 77%
06:00 +1°C° 0 mm 4 m/s 764 mmHg 76%
07:00 +1°C° 0 mm 4 m/s 764 mmHg 75%
08:00 +1°C° 0 mm 4 m/s 763 mmHg 70%
09:00 +2°C° 0 mm 5 m/s 763 mmHg 66%
10:00 +3°C° 0 mm 5 m/s 763 mmHg 61%
11:00 +3°C° 0.1 mm 6 m/s 763 mmHg 61%
12:00 +3°C° 0.1 mm 6 m/s 763 mmHg 60%
13:00 +4°C° 0.1 mm 6 m/s 763 mmHg 60%
14:00 +3°C° 0.2 mm 6 m/s 762 mmHg 68%
15:00 +3°C° 0.2 mm 6 m/s 762 mmHg 76%
16:00 +2°C° 0.2 mm 6 m/s 762 mmHg 84%
17:00 +2°C° 0.5 mm 6 m/s 762 mmHg 88%
18:00 +1°C° 0.5 mm 6 m/s 762 mmHg 93%
19:00 +1°C° 0.5 mm 5 m/s 761 mmHg 97%
20:00 +1°C° 0.4 mm 5 m/s 761 mmHg 97%
21:00 +1°C° 0.4 mm 5 m/s 761 mmHg 97%
22:00 +1°C° 0.4 mm 4 m/s 761 mmHg 97%
23:00 +1°C° 0.5 mm 4 m/s 761 mmHg 97%

Mâine, 16 Aprilie, Vineri

Timp Temperatura Precipitaţii Vânt Presiune Umiditate
00:00 +1°C° 0.5 mm 4 m/s 761 mmHg 96%
01:00 +2°C° 0.5 mm 3 m/s 761 mmHg 96%
02:00 +1°C° 0.2 mm 4 m/s 761 mmHg 95%
03:00 +1°C° 0.2 mm 4 m/s 761 mmHg 94%
04:00 +1°C° 0.2 mm 4 m/s 761 mmHg 92%
05:00 +1°C° 0.1 mm 4 m/s 761 mmHg 91%
06:00 +2°C° 0.1 mm 3 m/s 761 mmHg 90%
07:00 +2°C° 0.1 mm 3 m/s 761 mmHg 89%
08:00 +4°C° 0 mm 3 m/s 761 mmHg 83%
09:00 +5°C° 0 mm 4 m/s 761 mmHg 77%
10:00 +6°C° 0 mm 4 m/s 761 mmHg 71%
11:00 +7°C° 0 mm 4 m/s 761 mmHg 67%
12:00 +7°C° 0 mm 4 m/s 761 mmHg 62%
13:00 +8°C° 0 mm 4 m/s 761 mmHg 57%
14:00 +8°C° 0 mm 4 m/s 761 mmHg 59%
15:00 +8°C° 0 mm 4 m/s 760 mmHg 60%
16:00 +8°C° 0 mm 4 m/s 760 mmHg 62%
17:00 +8°C° 0 mm 3 m/s 760 mmHg 69%
18:00 +7°C° 0 mm 3 m/s 761 mmHg 76%
19:00 +5°C° 0 mm 3 m/s 761 mmHg 83%
20:00 +5°C° 0.2 mm 3 m/s 761 mmHg 87%
21:00 +4°C° 0.2 mm 3 m/s 761 mmHg 91%
22:00 +4°C° 0.2 mm 2 m/s 761 mmHg 95%
23:00 +4°C° 0.1 mm 2 m/s 761 mmHg 95%

Poimâine, 17 Aprilie, Sâmbătă

Timp Temperatura Precipitaţii Vânt Presiune Umiditate
00:00 +4°C° 0.1 mm 2 m/s 761 mmHg 95%
01:00 +4°C° 0.1 mm 2 m/s 761 mmHg 95%
02:00 +4°C° 0 mm 2 m/s 761 mmHg 95%
03:00 +4°C° 0 mm 2 m/s 761 mmHg 95%
04:00 +4°C° 0 mm 2 m/s 761 mmHg 95%
05:00 +5°C° 0 mm 1 m/s 761 mmHg 94%
06:00 +6°C° 0 mm 1 m/s 761 mmHg 93%
07:00 +6°C° 0 mm 1 m/s 761 mmHg 93%
08:00 +6°C° 0 mm 1 m/s 761 mmHg 90%
09:00 +6°C° 0 mm 2 m/s 761 mmHg 88%
10:00 +7°C° 0 mm 2 m/s 761 mmHg 86%
11:00 +7°C° 0 mm 2 m/s 761 mmHg 85%
12:00 +7°C° 0 mm 2 m/s 760 mmHg 85%
13:00 +8°C° 0 mm 2 m/s 760 mmHg 84%
14:00 +7°C° 0.1 mm 2 m/s 760 mmHg 87%
15:00 +7°C° 0.1 mm 2 m/s 760 mmHg 90%
16:00 +7°C° 0.1 mm 2 m/s 760 mmHg 92%
17:00 +7°C° 0.1 mm 2 m/s 760 mmHg 94%
18:00 +7°C° 0.1 mm 2 m/s 760 mmHg 95%
19:00 +7°C° 0.1 mm 2 m/s 760 mmHg 97%
20:00 +7°C° 0 mm 2 m/s 760 mmHg 97%
21:00 +7°C° 0 mm 2 m/s 760 mmHg 97%
22:00 +7°C° 0 mm 2 m/s 760 mmHg 98%
23:00 +6°C° 0.1 mm 2 m/s 760 mmHg 98%

18 Aprilie, Duminică

Timp Temperatura Precipitaţii Vânt Presiune Umiditate
00:00 +6°C° 0.1 mm 2 m/s 760 mmHg 98%
01:00 +6°C° 0.1 mm 2 m/s 760 mmHg 98%
02:00 +6°C° 0.1 mm 2 m/s 760 mmHg 97%
03:00 +6°C° 0.1 mm 2 m/s 759 mmHg 97%
04:00 +5°C° 0.1 mm 2 m/s 759 mmHg 97%
05:00 +6°C° 0 mm 2 m/s 759 mmHg 95%
06:00 +6°C° 0 mm 2 m/s 759 mmHg 93%
07:00 +7°C° 0 mm 2 m/s 759 mmHg 91%
08:00 +8°C° 0.1 mm 2 m/s 759 mmHg 84%
09:00 +9°C° 0.1 mm 3 m/s 759 mmHg 78%
10:00 +10°C° 0.1 mm 3 m/s 759 mmHg 72%
11:00 +10°C° 0.2 mm 3 m/s 759 mmHg 71%
12:00 +11°C° 0.2 mm 3 m/s 759 mmHg 69%
13:00 +12°C° 0.2 mm 2 m/s 759 mmHg 68%
14:00 +12°C° 0.1 mm 2 m/s 759 mmHg 67%
15:00 +12°C° 0.1 mm 2 m/s 759 mmHg 65%
16:00 +12°C° 0.1 mm 2 m/s 758 mmHg 64%
17:00 +11°C° 0.1 mm 1 m/s 759 mmHg 69%
18:00 +10°C° 0.1 mm 1 m/s 759 mmHg 74%
19:00 +9°C° 0.1 mm 1 m/s 759 mmHg 79%
20:00 +9°C° 0 mm 1 m/s 759 mmHg 82%
21:00 +8°C° 0 mm 1 m/s 759 mmHg 84%
22:00 +8°C° 0 mm 1 m/s 759 mmHg 87%
23:00 +8°C° 0 mm 1 m/s 759 mmHg 88%

19 Aprilie, Luni

Timp Temperatura Precipitaţii Vânt Presiune Umiditate
00:00 +7°C° 0 mm 1 m/s 759 mmHg 89%
01:00 +7°C° 0 mm 1 m/s 759 mmHg 90%
02:00 +7°C° 0 mm 1 m/s 759 mmHg 90%
03:00 +7°C° 0 mm 1 m/s 759 mmHg 90%
04:00 +7°C° 0 mm 1 m/s 758 mmHg 91%
05:00 +7°C° 0 mm 2 m/s 758 mmHg 89%
06:00 +7°C° 0 mm 2 m/s 758 mmHg 87%
07:00 +8°C° 0 mm 2 m/s 758 mmHg 85%
08:00 +9°C° 0.1 mm 2 m/s 758 mmHg 80%
09:00 +10°C° 0.1 mm 2 m/s 758 mmHg 75%
10:00 +11°C° 0.1 mm 3 m/s 758 mmHg 70%
11:00 +11°C° 0.3 mm 3 m/s 757 mmHg 69%
12:00 +11°C° 0.3 mm 3 m/s 757 mmHg 68%
13:00 +12°C° 0.3 mm 4 m/s 757 mmHg 68%
14:00 +11°C° 0.2 mm 4 m/s 757 mmHg 72%
15:00 +10°C° 0.2 mm 4 m/s 756 mmHg 76%
16:00 +10°C° 0.2 mm 4 m/s 756 mmHg 80%
17:00 +9°C° 0.1 mm 3 m/s 756 mmHg 83%
18:00 +9°C° 0.1 mm 2 m/s 756 mmHg 86%
19:00 +9°C° 0.1 mm 2 m/s 756 mmHg 89%
20:00 +9°C° 0.2 mm 2 m/s 755 mmHg 90%
21:00 +8°C° 0.2 mm 2 m/s 755 mmHg 92%
22:00 +8°C° 0.2 mm 3 m/s 755 mmHg 93%
23:00 +8°C° 0.1 mm 2 m/s 755 mmHg 94%

20 Aprilie, Marţi

Timp Temperatura Precipitaţii Vânt Presiune Umiditate
00:00 +8°C° 0.1 mm 2 m/s 754 mmHg 95%
01:00 +8°C° 0.1 mm 2 m/s 754 mmHg 96%
02:00 +8°C° 0.3 mm 2 m/s 754 mmHg 96%
03:00 +8°C° 0.3 mm 2 m/s 754 mmHg 95%
04:00 +8°C° 0.3 mm 3 m/s 753 mmHg 95%
05:00 +8°C° 0.2 mm 3 m/s 753 mmHg 94%
06:00 +8°C° 0.2 mm 3 m/s 753 mmHg 92%
07:00 +8°C° 0.2 mm 3 m/s 753 mmHg 90%
08:00 +8°C° 0 mm 4 m/s 753 mmHg 87%
09:00 +8°C° 0 mm 4 m/s 753 mmHg 84%
10:00 +10°C° 0 mm 4 m/s 752 mmHg 81%
11:00 +10°C° 0 mm 4 m/s 752 mmHg 78%
12:00 +11°C° 0 mm 4 m/s 752 mmHg 74%
13:00 +12°C° 0 mm 5 m/s 752 mmHg 71%
14:00 +12°C° 0.1 mm 5 m/s 751 mmHg 69%
15:00 +13°C° 0.1 mm 5 m/s 751 mmHg 68%
16:00 +13°C° 0.1 mm 5 m/s 751 mmHg 67%
17:00 +12°C° 0.3 mm 5 m/s 751 mmHg 72%
18:00 +11°C° 0.3 mm 4 m/s 751 mmHg 78%
19:00 +10°C° 0.3 mm 4 m/s 751 mmHg 83%
20:00 +8°C° 0.1 mm 4 m/s 751 mmHg 86%
21:00 +9°C° 0.1 mm 3 m/s 751 mmHg 90%
22:00 +8°C° 0.1 mm 3 m/s 751 mmHg 94%
23:00 +7°C° 0 mm 3 m/s 751 mmHg 95%
Arată mai mult

Formular de consimțământ

Meteoprog și furnizorii noștri de servicii pot stoca și accesa date personale, precum cookies, identificatori de dispozitiv sau alte tehnologii similare pe dispozitivul dumneavoastră și procesa astfel de date pentru a personaliza conținutul și reclamele, dar și pentru a oferi caracteristici de social media și pentru a analiza traficul.

  • Stocarea și/sau accesarea informațiilor pe dispozitivul dumneavoastră

    Cookies, identificatori de dispozitiv sau alte informații pot fi stocate sau accesate pe dispozitiv în scopurile indicate mai sus.

  • Reclame și conținut personalizat, evaluarea reclamelor și a conținutului, informații despre audiențe și dezvoltarea produselor

    Reclamele și conținutul pot fi personalizate pe baza unui profil. Pot fi adăugate date suplimentare pentru a personaliza mai bine reclamele și conținutul. Performanța reclamelor și conținutului poate fi măsurată. Pot fi obținute informații despre utilizatorii care au văzut reclamele și conținutul. Aceste date pot fi utilizate pentru a dezvolta sau îmbunătăți experiența utilizatorilor, sistemele și software-ul.

Dând clic pe ‘Sunt de acord’, permiteți utilizarea cookie-urilor menționate, a identificatorilor de dispozitiv, balizelor web sau altor tehnologii similare. Setările pot fi modificate din browser-ul dispozitivului dumneavoastră.

În anumite scopuri, interesele legitime pot prima asupra consimțământului. Puteți citi mai multe informații în acest sens în Politica privind Confidențialitatea Datelor și Cookie.